FW7576 Weather Reports


time (UTC)temp
F
wind
direction
speed
knots
gust
knots
rain 1hr
in
rain 24hr
in
rain mn
in
humidity
%
barometer
mb
20260507161541 50 283 0.9 4.3 0.00 0.00 0.00 45 1013.4
20260507160041 50 274 2.6 5.2 0.00 0.00 0.00 44 1013.8
20260507154542 48 246 1.7 4.3 0.00 0.00 0.00 48 1013.9
20260507153038 47 228 1.7 6.1 0.00 0.00 0.00 50 1014.1
20260507151536 46 269 2.6 7.8 0.00 0.00 0.00 51 1014.4
20260507150036 45 238 4.3 7.8 0.00 0.00 0.00 51 1014.5
20260507144539 44 224 2.6 5.2 0.00 0.00 0.00 56 1014.6
20260507143039 42 270 2.6 6.1 0.00 0.00 0.00 60 1014.7
20260507141539 42 353 0.9 6.1 0.00 0.00 0.00 65 1015.2
20260507140036 41 316 1.7 7.8 0.00 0.00 0.00 67 1015.3
20260507134542 40 311 2.6 6.1 0.00 0.00 0.00 69 1015.5
20260507133056 40 327 4.3 8.7 0.00 0.00 0.00 66 1015.4
20260507131545 41 259 6.1 13.0 0.00 0.00 0.00 59 1015.6
20260507130054 41 278 2.6 6.1 0.00 0.00 0.00 56 1015.4
20260507124537 41 263 3.5 7.8 0.00 0.00 0.00 56 1015.2
20260507123036 40 245 3.5 7.8 0.00 0.00 0.00 58 1015.2
20260507121540 39 243 1.7 4.3 0.00 0.00 0.00 63 1015.2
20260507120052 37 244 1.7 5.2 0.00 0.00 0.00 65 1015.1
20260507114612 36 250 2.6 3.5 0.00 0.00 0.00 66 1014.9
20260507113038 35 230 0.9 4.3 0.00 0.00 0.00 69 1014.8
20260507111537 34 233 0.9 2.6 0.00 0.00 0.00 71 1014.6
20260507110036 33 231 0.0 1.7 0.00 0.00 0.00 72 1014.2
20260507104535 33 240 0.0 2.6 0.00 0.00 0.00 72 1014.5
20260507103040 33 239 0.9 2.6 0.00 0.00 0.00 72 1014.6
20260507101543 33 243 1.7 2.6 0.00 0.00 0.00 72 1014.6
20260507100039 33 220 0.9 2.6 0.00 0.00 0.00 72 1014.6
20260507094536 33 255 0.0 2.6 0.00 0.00 0.00 72 1014.3
20260507093035 33 0 0.0 0.9 0.00 0.00 0.00 72 1014.2
20260507091546 34 231 0.0 1.7 0.00 0.00 0.00 70 1014.3
20260507090041 35 0 0.9 2.6 0.00 0.00 0.00 69 1014.3
20260507084548 35 253 1.7 3.5 0.00 0.00 0.00 69 1014.6
20260507083036 35 260 1.7 3.5 0.00 0.00 0.00 69 1014.5
20260507081540 35 233 0.0 0.9 0.00 0.00 0.00 69 1014.2
20260507080044 35 235 0.9 1.7 0.00 0.00 0.00 70 1014.3
20260507074534 35 0 0.0 1.7 0.00 0.00 0.00 69 1014.5
20260507073036 35 0 0.0 1.7 0.00 0.00 0.00 69 1014.5
20260507071535 35 236 0.0 0.0 0.00 0.00 0.00 70 1014.6
20260507070035 36 0 0.0 0.9 0.00 0.00 0.00 67 1014.8
20260507064535 37 236 0.0 1.7 0.00 0.00 0.00 67 1015.2
20260507063038 37 221 0.0 1.7 0.00 0.00 0.00 66 1015.2
20260507061538 38 246 0.0 0.9 0.00 0.00 0.00 64 1015.1
20260507060036 39 262 0.0 1.7 0.00 0.00 0.00 61 1015.1
20260507054539 39 305 0.9 4.3 0.00 0.00 0.00 60 1015.2
20260507053033 39 0 0.0 1.7 0.00 0.00 0.00 60 1015.2
20260507051534 39 0 0.0 0.9 0.00 0.00 0.00 60 1015.2
20260507050038 40 0 0.0 1.7 0.00 0.00 0.00 58 1015.2
20260507044538 41 0 0.0 0.9 0.00 0.00 0.00 57 1015.4
20260507043036 41 305 0.9 4.3 0.00 0.00 0.00 56 1015.3
20260507041536 42 328 1.7 4.3 0.00 0.00 0.00 55 1015.4
20260507040043 42 332 1.7 5.2 0.00 0.00 0.00 54 1015.4
20260507034537 43 295 3.5 6.1 0.00 0.00 0.00 53 1015.4
20260507033038 43 324 2.6 7.0 0.00 0.00 0.00 52 1015.6
20260507031537 44 290 3.5 8.7 0.00 0.00 0.00 51 1015.4
20260507030036 44 297 2.6 7.8 0.00 0.00 0.00 50 1015.4
20260507024533 45 308 3.5 9.6 0.00 0.00 0.00 49 1015.2
20260507023046 46 295 3.5 9.6 0.00 0.00 0.00 48 1015.1
20260507021544 46 266 4.3 9.6 0.00 0.00 0.00 48 1014.9
20260507020059 46 285 2.6 9.6 0.00 0.00 0.00 47 1014.7
20260507014537 47 285 4.3 13.0 0.00 0.00 0.00 46 1014.5
20260507013047 48 293 4.3 11.3 0.00 0.00 0.00 45 1014.2
20260507011536 48 295 3.5 11.3 0.00 0.00 0.00 45 1014.1
20260507010042 49 323 3.5 9.6 0.00 0.00 0.00 45 1013.9
20260507004551 49 261 4.3 8.7 0.00 0.00 0.00 43 1013.7
20260507003044 50 294 6.1 10.4 0.00 0.00 0.00 43 1013.6
20260507001543 50 307 2.6 10.4 0.00 0.00 0.00 43 1013.4
20260507000041 50 315 5.2 12.2 0.00 0.00 0.00 41 1013.3
20260506234544 50 231 2.6 10.4 0.00 0.00 0.00 42 1013.4
20260506233044 51 160 2.6 7.8 0.00 0.00 0.00 41 1013.2
20260506231539 51 299 4.3 12.2 0.00 0.00 0.00 41 1013.1
20260506230045 51 322 5.2 10.4 0.00 0.00 0.00 39 1013.2
20260506224536 51 293 3.5 9.6 0.00 0.00 0.00 41 1013.1
20260506223044 51 307 4.3 9.6 0.00 0.00 0.00 39 1012.9
20260506221539 51 219 4.3 9.6 0.00 0.00 0.00 40 1012.8
20260506220039 52 290 3.5 11.3 0.00 0.00 0.00 39 1012.8
20260506214541 52 328 1.7 10.4 0.00 0.00 0.00 39 1012.7
20260506213044 52 253 3.5 8.7 0.00 0.00 0.00 39 1012.9
20260506211536 53 233 3.5 9.6 0.00 0.00 0.00 39 1012.7
20260506210041 53 271 3.5 11.3 0.00 0.00 0.00 38 1012.7
20260506204538 53 245 2.6 7.8 0.00 0.00 0.00 39 1012.7
20260506203035 53 18 3.5 11.3 0.00 0.00 0.00 39 1012.7
20260506201536 53 268 5.2 9.6 0.00 0.00 0.00 39 1013.0
20260506200035 53 256 2.6 8.7 0.00 0.00 0.00 39 1013.0
20260506194539 53 255 2.6 7.8 0.00 0.00 0.00 39 1012.9
20260506193040 53 316 3.5 11.3 0.00 0.00 0.00 39 1012.8
20260506191541 53 294 4.3 9.6 0.00 0.00 0.00 39 1013.0
20260506190037 53 272 1.7 8.7 0.00 0.00 0.00 40 1013.2
20260506184547 52 274 4.3 9.6 0.00 0.00 0.00 39 1013.2
20260506183053 52 233 4.3 11.3 0.00 0.00 0.00 39 1013.1
20260506181608 52 204 2.6 11.3 0.00 0.00 0.00 41 1012.9
20260506180042 52 276 4.3 8.7 0.00 0.00 0.00 41 1012.9
20260506174541 52 263 4.3 9.6 0.00 0.00 0.00 41 1013.1
20260506173053 51 256 3.5 7.8 0.00 0.00 0.00 40 1013.2
20260506171535 51 325 4.3 13.0 0.00 0.00 0.00 39 1013.2
20260506170042 52 322 4.3 7.8 0.00 0.00 0.00 39 1013.4
20260506164543 51 296 3.5 11.3 0.00 0.00 0.00 42 1013.6
20260506163040 51 238 4.3 11.3 0.00 0.00 0.00 43 1013.5